Boise, ID

1:43 PM MDT on October 22, 2017 (GMT -0600)
Boise Air Term

Weather History for KBOI - June, 2013

Change the Weather History Date:

Tuesday, June 25, 2013

  Actual Average Record
Temperature  
Mean Temperature 64 °F 70 °F  
Max Temperature 71 °F 85 °F 102 °F (1962)
Min Temperature 57 °F 56 °F 38 °F (1966)
Degree Days  
Heating Degree Days 1 1  
Month to date heating degree days 35 59  
Since 1 June heating degree days 35 59  
Since 1 July heating degree days 5349 5509  
Cooling Degree Days 0 6  
Month to date cooling degree days 109 102  
Year to date cooling degree days 156 146  
Since 1 June cooling degree days 109 102  
Growing Degree Days 14 (Base 50)    
Moisture  
Dew Point 54 °F    
Average Humidity 72    
Maximum Humidity 100    
Minimum Humidity 44    
Precipitation  
Precipitation 0.27 in 0.02 in 0.60 in (1998)
Month to date precipitation 0.41 0.62  
Year to date precipitation 4.33 6.86  
Snow  
Snow 0.00 in 0.00 in 0.00 in (2007)
Month to date snowfall 0.0 0.0  
Since 1 July snowfall 16.0 19.2  
Snow Depth 0.00 in    
Sea Level Pressure  
Sea Level Pressure 29.85 in    
Wind  
Wind Speed 8 mph (SE)    
Max Wind Speed 20 mph    
Max Gust Speed 23 mph    
Visibility 10 miles    
Events Rain    
T = Trace of Precipitation, MM = Missing Value Source: NWS Daily Summary

Daily Weather History Graph

Daily Weather History Graph

Search for Another Location

Airport or City:

Trip Planner

Search our weather history database for the weather conditions in past years. The results will help you decide how hot, cold, wet, or windy it might be!

Date:

Astronomy

Jun. 25, 2013 Rise Set
Actual Time 6:04 AM MDT 9:30 PM MDT
Civil Twilight 5:29 AM MDT 10:06 PM MDT
Nautical Twilight 4:42 AM MDT 10:52 PM MDT
Astronomical Twilight 3:43 AM MDT 11:51 PM MDT
Moon 11:11 PM MDT (6/25) 8:55 AM MDT (6/25)
Length of Visible Light 16h 36m
Length of Day
15h 25m
Waning Gibbous, 92% of the Moon is Illuminated
Jun 25
Waning Gibbous
Jun 29
Last Quarter
Jul 8
New
Jul 15
First Quarter
Jul 22
Full

Hourly Weather History & Observations

Time (MDT) Temp. Dew Point Humidity Pressure Visibility Wind Dir Wind Speed Gust Speed Precip Events Conditions
12:53 AM 60.1 °F 53.1 °F 78% 29.77 in 10.0 mi SE 5.8 mph - N/A   Overcast
1:53 AM 60.1 °F 53.1 °F 78% 29.78 in 10.0 mi SE 5.8 mph - 0.00 in   Overcast
2:53 AM 59.0 °F 52.0 °F 78% 29.80 in 10.0 mi SE 6.9 mph - N/A   Overcast
3:53 AM 57.9 °F 51.1 °F 78% 29.80 in 10.0 mi SE 6.9 mph - N/A   Mostly Cloudy
4:53 AM 57.0 °F 51.1 °F 81% 29.81 in 10.0 mi SE 8.1 mph - N/A   Clear
5:53 AM 57.9 °F 51.1 °F 78% 29.82 in 10.0 mi SE 5.8 mph - N/A   Clear
6:53 AM 57.9 °F 52.0 °F 81% 29.84 in 10.0 mi SE 6.9 mph - N/A   Clear
7:53 AM 61.0 °F 52.0 °F 72% 29.84 in 10.0 mi SE 6.9 mph - N/A   Mostly Cloudy
8:53 AM 62.1 °F 53.1 °F 72% 29.86 in 10.0 mi SSE 9.2 mph - 0.00 in Rain Light Rain
9:53 AM 64.0 °F 52.0 °F 65% 29.86 in 10.0 mi SE 11.5 mph - 0.00 in   Overcast
10:53 AM 66.9 °F 50.0 °F 54% 29.85 in 10.0 mi SE 12.7 mph - N/A   Mostly Cloudy
11:53 AM 70.0 °F 48.9 °F 47% 29.84 in 10.0 mi SE 13.8 mph 23.0 mph N/A   Overcast
12:53 PM 70.0 °F 46.0 °F 42% 29.86 in 10.0 mi South 13.8 mph - 0.00 in   Overcast
1:53 PM 66.9 °F 51.1 °F 57% 29.89 in 10.0 mi SW 9.2 mph - 0.01 in Rain Light Rain
2:53 PM 66.9 °F 52.0 °F 59% 29.88 in 10.0 mi Calm Calm - 0.00 in   Overcast
3:53 PM 66.9 °F 53.1 °F 61% 29.88 in 10.0 mi SE 8.1 mph - 0.01 in Rain Light Rain
4:53 PM 66.9 °F 55.0 °F 66% 29.86 in 10.0 mi East 6.9 mph - 0.00 in Rain Light Rain
5:53 PM 63.0 °F 57.0 °F 81% 29.87 in 5.0 mi NW 16.1 mph 19.6 mph 0.01 in Rain Rain
6:53 PM 63.0 °F 61.0 °F 93% 29.86 in 10.0 mi NNE 6.9 mph - 0.09 in Rain Light Rain
7:53 PM 63.0 °F 62.1 °F 97% 29.89 in 10.0 mi Calm Calm - 0.05 in Rain Light Rain
8:53 PM 63.0 °F 61.0 °F 93% 29.89 in 10.0 mi Calm Calm - 0.00 in   Overcast
9:53 PM 63.0 °F 59.0 °F 87% 29.89 in 10.0 mi SE 8.1 mph - 0.00 in   Overcast
10:53 PM 63.0 °F 57.9 °F 84% 29.91 in 10.0 mi SE 6.9 mph - 0.00 in Rain Light Rain
11:53 PM 63.0 °F 57.9 °F 84% 29.92 in 10.0 mi ESE 6.9 mph - 0.03 in Rain Light Rain